Akron, CO

8:26 PM MST on November 11, 2019 (GMT -0700)
Akron-Washington County

Weather History for KAKO - October, 2019

Change the Weather History Date:

Monday, October 21, 2019

  Actual Average Record
Temperature  
Mean Temperature 42 °F 48 °F  
Max Temperature 51 °F 62 °F 86 °F (1940)
Min Temperature 32 °F 35 °F 20 °F (1976)
Degree Days  
Heating Degree Days 23    
Month to date heating degree days 329  
Cooling Degree Days 0    
Month to date cooling degree days 2  
Moisture  
Dew Point 21 °F    
Average Humidity 52    
Maximum Humidity 75    
Minimum Humidity 29    
Precipitation  
Precipitation 0.00 in 0.03 in 1.00 in (1941)
Month to date precipitation 0.06 0.84  
Year to date precipitation 15.16 15.49  
Snow  
Snow 0.00 in - - ()
Snow Depth 0.00 in    
Sea Level Pressure  
Sea Level Pressure 29.97 in    
Wind  
Wind Speed 21 mph (NW)    
Max Wind Speed 39 mph    
Max Gust Speed 50 mph    
Visibility 10 miles    
Events      
T = Trace of Precipitation, MM = Missing Value Source: NWS Daily Summary

Daily Weather History Graph

Daily Weather History Graph

Search for Another Location

Airport or City:

Astronomy

Oct. 21, 2019 Rise Set
Actual Time 7:09 AM MDT 6:04 PM MDT
Civil Twilight 6:42 AM MDT 6:32 PM MDT
Nautical Twilight 6:10 AM MDT 7:03 PM MDT
Astronomical Twilight 5:39 AM MDT 7:35 PM MDT
Moon No Moon Rise 2:29 PM MDT (10/21)
Length of Visible Light 11h 50m
Length of Day
10h 54m
Waning Gibbous, 47% of the Moon is Illuminated
Oct 21
Waning Gibbous
Oct 27
New
Nov 4
First Quarter
Nov 12
Full
Nov 19
Last Quarter

Hourly Weather History & Observations

Time (MDT) Temp. Windchill Dew Point Humidity Pressure Visibility Wind Dir Wind Speed Gust Speed Precip Events Conditions
12:53 AM 34.0 °F 23.0 °F 26.1 °F 73% 29.84 in 10.0 mi WNW 18.4 mph - N/A   Clear
1:53 AM 34.0 °F 21.8 °F 24.1 °F 67% 29.84 in 10.0 mi WNW 23.0 mph 33.4 mph N/A   Clear
2:53 AM 34.0 °F 22.7 °F 23.0 °F 64% 29.84 in 10.0 mi WNW 19.6 mph 29.9 mph N/A   Clear
3:53 AM 35.1 °F 23.0 °F 24.1 °F 64% 29.85 in 10.0 mi NW 24.2 mph 32.2 mph N/A   Clear
4:53 AM 32.0 °F 20.8 °F 24.1 °F 73% 29.87 in 10.0 mi WNW 17.3 mph - N/A   Clear
5:53 AM 34.0 °F 22.1 °F 23.0 °F 64% 29.88 in 10.0 mi NW 21.9 mph 32.2 mph N/A   Clear
6:53 AM 34.0 °F 22.1 °F 21.9 °F 61% 29.89 in 10.0 mi NW 21.9 mph 31.1 mph N/A   Clear
7:53 AM 35.1 °F 23.5 °F 21.9 °F 59% 29.90 in 10.0 mi NW 21.9 mph 29.9 mph N/A   Clear
8:53 AM 37.9 °F 25.1 °F 21.9 °F 53% 29.92 in 10.0 mi NW 33.4 mph 44.9 mph N/A   Clear
9:53 AM 42.1 °F 30.8 °F 21.9 °F 45% 29.92 in 10.0 mi NNW 33.4 mph 46.0 mph N/A   Clear
10:53 AM 46.0 °F 36.7 °F 21.9 °F 39% 29.93 in 10.0 mi NW 29.9 mph 46.0 mph N/A   Clear
11:53 AM 46.9 °F - 21.0 °F 36% 29.94 in 10.0 mi NNW 32.2 mph 42.6 mph N/A   Partly Cloudy
12:53 PM 50.0 °F - 19.9 °F 31% 29.94 in 10.0 mi NNW 27.6 mph 43.7 mph N/A   Scattered Clouds
1:53 PM 48.9 °F - 18.0 °F 29% 29.94 in 10.0 mi NW 23.0 mph 39.1 mph N/A   Overcast
2:53 PM 48.9 °F - 18.0 °F 29% 29.95 in 10.0 mi NNW 27.6 mph 39.1 mph N/A   Mostly Cloudy
3:53 PM 46.9 °F - 19.0 °F 33% 29.98 in 10.0 mi North 21.9 mph 29.9 mph N/A   Overcast
4:53 PM 45.0 °F 36.6 °F 18.0 °F 34% 30.02 in 10.0 mi North 21.9 mph 31.1 mph N/A   Scattered Clouds
5:53 PM 44.1 °F 36.5 °F 18.0 °F 35% 30.04 in 10.0 mi NNW 17.3 mph - N/A   Overcast
6:53 PM 39.0 °F 33.4 °F 19.9 °F 46% 30.08 in 10.0 mi North 8.1 mph - N/A   Mostly Cloudy
7:53 PM 33.1 °F 26.1 °F 19.0 °F 56% 30.12 in 10.0 mi NNW 8.1 mph - N/A   Clear
8:53 PM 33.1 °F 26.1 °F 18.0 °F 54% 30.12 in 10.0 mi NW 8.1 mph - N/A   Clear
9:53 PM 34.0 °F 26.0 °F 18.0 °F 52% 30.13 in 10.0 mi WSW 10.4 mph - N/A   Mostly Cloudy
10:53 PM 37.9 °F 30.9 °F 19.9 °F 48% 30.12 in 10.0 mi WNW 10.4 mph - N/A   Overcast
11:53 PM 36.0 °F 28.5 °F 21.0 °F 55% 30.13 in 10.0 mi West 10.4 mph - N/A   Clear